FW1075 Weather Reports


time (UTC)temp
F
wind
direction
speed
knots
gust
knots
rain 1hr
in
rain 24hr
in
rain mn
in
humidity
%
barometer
mb
20260905081123 72 1 0.9 3.5 0.00 0.01 0.00 81 1007.9
20260905080121 72 336 1.7 3.5 0.00 0.01 0.00 81 1007.9
20260905075142 72 300 0.9 3.5 0.00 0.01 0.00 81 1007.9
20260905074121 72 321 1.7 3.5 0.00 0.01 0.00 80 1007.9
20260905073123 72 313 1.7 3.5 0.00 0.01 0.00 80 1007.9
20260905072121 72 10 0.9 2.6 0.00 0.01 0.00 81 1007.8
20260905071122 72 353 1.7 3.5 0.00 0.01 0.00 81 1007.8
20260905070122 72 360 0.9 2.6 0.00 0.03 0.00 81 1007.8
20260905065143 72 55 0.9 2.6 0.00 0.03 0.00 81 1007.9
20260905064122 72 357 0.9 2.6 0.00 0.03 0.00 81 1008.0
20260905063123 72 289 0.9 3.5 0.00 0.03 0.00 80 1008.1
20260905062122 73 288 0.9 2.6 0.00 0.03 0.00 80 1008.2
20260905061143 73 319 0.9 2.6 0.00 0.03 0.00 79 1008.4
20260905060121 73 295 0.9 1.7 0.00 0.03 0.00 79 1008.4
20260905055121 73 297 0.9 1.7 0.00 0.03 0.00 79 1008.4
20260905054121 73 330 0.9 2.6 0.00 0.03 0.00 78 1008.5
20260905053123 74 304 0.9 2.6 0.00 0.03 0.00 78 1008.6
20260905052122 74 322 1.7 2.6 0.00 0.03 0.00 78 1008.7
20260905051122 74 323 1.7 3.5 0.00 0.03 0.00 77 1008.7
20260905050121 74 302 1.7 3.5 0.00 0.03 0.00 76 1008.7
20260905045122 75 323 1.7 3.5 0.00 0.03 0.00 76 1008.8
20260905044121 75 320 2.6 4.3 0.00 0.03 0.00 75 1008.7
20260905043121 75 299 1.7 4.3 0.00 0.03 0.00 75 1008.8
20260905042142 75 290 1.7 3.5 0.00 0.03 0.00 75 1008.8
20260905041143 75 303 2.6 3.5 0.00 0.03 0.00 75 1008.8
20260905040122 75 330 1.7 4.3 0.00 0.03 0.00 75 1008.8
20260905035121 76 329 1.7 4.3 0.00 0.03 0.03 75 1008.9
20260905034121 76 325 1.7 4.3 0.00 0.03 0.03 74 1008.8
20260905033145 76 302 1.7 3.5 0.00 0.03 0.03 73 1008.8
20260905032125 76 337 2.6 5.2 0.00 0.03 0.03 73 1008.8
20260905031121 76 318 2.6 4.3 0.00 0.03 0.03 72 1008.8
20260905030121 76 308 1.7 5.2 0.00 0.03 0.03 72 1008.8
20260905025123 76 296 1.7 2.6 0.00 0.03 0.03 72 1008.7
20260905024123 76 324 1.7 3.5 0.00 0.03 0.03 72 1008.7
20260905023127 76 313 2.6 4.3 0.00 0.03 0.03 71 1008.8
20260905022122 76 298 2.6 5.2 0.00 0.03 0.03 71 1008.8
20260905021143 75 287 1.7 4.3 0.00 0.03 0.03 72 1008.8
20260905020122 75 298 1.7 4.3 0.00 0.03 0.03 73 1008.9
20260905015143 75 306 1.7 2.6 0.00 0.03 0.03 74 1008.9
20260905014121 75 304 0.9 1.7 0.00 0.03 0.03 73 1008.9
20260905013124 76 295 0.9 2.6 0.00 0.03 0.03 72 1008.9
20260905012121 76 315 1.7 2.6 0.00 0.03 0.03 70 1008.8
20260905011143 76 319 0.9 2.6 0.00 0.03 0.03 69 1008.8
20260905010121 77 275 1.7 2.6 0.00 0.03 0.03 68 1008.8
20260905005142 77 314 1.7 3.5 0.00 0.03 0.03 67 1008.8
20260905004148 77 299 1.7 3.5 0.00 0.03 0.03 67 1008.8
20260905003122 77 315 1.7 3.5 0.00 0.03 0.03 66 1008.7
20260905002121 78 317 1.7 3.5 0.00 0.03 0.03 65 1008.8
20260905001123 78 299 0.9 3.5 0.00 0.03 0.03 64 1008.6
20260905000126 79 281 0.9 4.3 0.00 0.03 0.03 62 1008.6
20260904235121 79 353 1.7 3.5 0.00 0.03 0.03 61 1008.6
20260904234121 80 298 3.5 6.1 0.00 0.03 0.03 61 1008.7
20260904233121 80 294 2.6 4.3 0.00 0.03 0.03 61 1008.5
20260904232146 80 312 2.6 6.1 0.00 0.03 0.03 61 1008.5
20260904231144 81 291 1.7 3.5 0.00 0.03 0.03 62 1008.4
20260904230121 81 310 2.6 5.2 0.00 0.03 0.03 60 1008.4
20260904225122 82 324 2.6 5.2 0.00 0.03 0.03 59 1008.5
20260904224148 82 300 3.5 7.0 0.00 0.03 0.03 59 1008.6
20260904223123 83 328 3.5 7.0 0.00 0.03 0.03 58 1008.4
20260904222122 83 302 2.6 4.3 0.00 0.03 0.03 60 1008.5
20260904221123 84 290 2.6 4.3 0.00 0.03 0.03 59 1008.4
20260904220127 84 308 3.5 6.1 0.00 0.03 0.03 58 1008.4
20260904215128 85 303 3.5 6.1 0.00 0.03 0.03 56 1008.2
20260904214122 86 347 4.3 7.0 0.00 0.03 0.03 54 1008.2
20260904213121 87 320 3.5 6.1 0.00 0.03 0.03 54 1008.1
20260904212125 87 313 3.5 6.1 0.00 0.03 0.03 54 1008.2
20260904211121 88 326 4.3 10.4 0.00 0.03 0.03 52 1008.4
20260904210128 88 308 3.5 6.1 0.00 0.03 0.03 51 1008.4
20260904205121 89 332 4.3 7.8 0.00 0.03 0.03 51 1008.4
20260904204123 90 336 3.5 7.0 0.00 0.03 0.03 51 1008.4
20260904203124 91 299 3.5 5.2 0.00 0.03 0.03 51 1008.4
20260904202121 90 300 2.6 7.0 0.00 0.03 0.03 52 1008.5
20260904201125 90 287 3.5 6.1 0.00 0.03 0.03 53 1008.7
20260904200121 91 277 2.6 5.2 0.00 0.03 0.03 53 1008.7
20260904195125 91 314 3.5 5.2 0.00 0.03 0.03 51 1008.7
20260904194121 90 285 2.6 5.2 0.00 0.03 0.03 54 1008.8
20260904193122 88 323 3.5 6.1 0.00 0.03 0.03 56 1008.9
20260904192145 91 304 2.6 5.2 0.00 0.03 0.03 53 1009.1
20260904191121 91 326 4.3 7.0 0.00 0.03 0.03 53 1009.2
20260904190125 90 306 4.3 8.7 0.00 0.03 0.03 54 1009.2
20260904185144 89 323 3.5 6.1 0.00 0.03 0.03 54 1009.0
20260904184124 89 289 3.5 6.1 0.00 0.03 0.03 56 1009.1
20260904183122 87 340 3.5 6.1 0.00 0.03 0.03 57 1009.2
20260904182122 88 299 3.5 6.1 0.00 0.03 0.03 56 1009.2
20260904181125 88 285 3.5 7.0 0.00 0.03 0.03 56 1009.2
20260904180128 89 5 4.3 6.1 0.00 0.03 0.03 55 1009.2
20260904180121 89 7 4.3 6.1 0.00 0.03 0.03 55 1009.2
20260904175121 89 303 4.3 7.8 0.00 0.03 0.03 54 1009.2
20260904174121 89 336 4.3 7.8 0.00 0.03 0.03 54 1009.2
20260904173124 89 322 4.3 7.8 0.00 0.03 0.03 54 1009.1
20260904172121 88 309 5.2 9.6 0.00 0.03 0.03 57 1009.2
20260904171122 89 307 4.3 11.3 0.00 0.03 0.03 58 1009.2
20260904170121 88 311 4.3 7.8 0.00 0.03 0.03 57 1009.2
20260904165125 88 329 4.3 8.7 0.00 0.03 0.03 58 1009.2
20260904164142 88 304 4.3 7.0 0.00 0.03 0.03 57 1009.2
20260904163123 88 329 4.3 8.7 0.00 0.03 0.03 59 1009.2
20260904162122 87 319 4.3 7.8 0.00 0.03 0.03 60 1009.4
20260904161124 87 4 3.5 7.0 0.00 0.03 0.03 61 1009.5
20260904160124 87 317 4.3 7.0 0.00 0.03 0.03 61 1009.5
20260904155127 87 322 4.3 6.1 0.00 0.03 0.03 63 1009.5
20260904155121 87 323 4.3 6.1 0.00 0.03 0.03 63 1009.5
20260904154121 86 315 3.5 6.1 0.00 0.03 0.03 65 1009.7
20260904153126 86 301 5.2 7.0 0.00 0.03 0.03 64 1009.8
20260904152142 86 330 4.3 7.8 0.00 0.03 0.03 65 1010.0
20260904151125 85 289 4.3 7.8 0.00 0.03 0.03 66 1009.8
20260904150122 86 280 3.5 7.8 0.00 0.03 0.03 69 1009.8
20260904145122 85 306 3.5 7.8 0.00 0.03 0.03 70 1009.8
20260904144122 84 316 3.5 6.1 0.00 0.03 0.03 73 1009.9
20260904143124 83 314 4.3 7.8 0.00 0.03 0.03 75 1009.9
20260904142122 83 4 3.5 7.0 0.00 0.03 0.03 78 1009.8
20260904141122 82 18 4.3 7.8 0.00 0.03 0.03 78 1009.6
20260904140123 82 343 3.5 6.1 0.00 0.03 0.03 79 1009.6
20260904135125 81 310 4.3 7.8 0.00 0.03 0.03 81 1009.5
20260904134122 81 332 3.5 6.1 0.00 0.03 0.03 82 1009.5
20260904133120 80 310 3.5 6.1 0.00 0.03 0.03 83 1009.4
20260904132120 80 9 3.5 6.1 0.00 0.03 0.03 83 1009.5
20260904131141 80 350 2.6 6.1 0.00 0.03 0.03 86 1009.4
20260904130142 79 307 5.2 7.8 0.00 0.03 0.03 87 1009.4
20260904125141 78 334 4.3 6.1 0.00 0.03 0.03 88 1009.2
20260904124120 79 28 3.5 5.2 0.00 0.03 0.03 88 1009.4
20260904123124 78 358 3.5 7.0 0.00 0.03 0.03 91 1009.2
20260904122120 78 356 3.5 7.0 0.01 0.03 0.03 93 1009.2
20260904121120 77 13 4.3 8.7 0.01 0.03 0.03 93 1009.2
20260904120121 77 13 3.5 6.1 0.01 0.03 0.03 95 1009.2
20260904115120 77 282 2.6 6.1 0.01 0.03 0.03 98 1009.4
20260904114120 76 309 2.6 6.1 0.01 0.03 0.03 99 1009.2
20260904113120 76 281 2.6 4.3 0.01 0.03 0.03 99 1009.0
20260904112144 75 325 1.7 2.6 0.00 0.02 0.02 99 1008.9
20260904111120 75 320 1.7 4.3 0.00 0.02 0.02 99 1008.8
20260904110143 74 316 1.7 3.5 0.00 0.02 0.02 99 1008.8
20260904105123 73 317 1.7 4.3 0.00 0.02 0.02 99 1008.8
20260904104141 73 319 1.7 3.5 0.00 0.02 0.02 99 1008.7
20260904103143 73 295 1.7 3.5 0.00 0.02 0.02 99 1008.6
20260904102124 73 293 1.7 3.5 0.00 0.02 0.02 99 1008.7
20260904101122 72 281 1.7 2.6 0.00 0.02 0.02 99 1008.5
20260904100122 72 345 0.0 0.9 0.00 0.02 0.02 99 1008.5
20260904095124 73 270 0.0 0.0 0.00 0.02 0.02 99 1008.5
20260904094121 73 203 0.0 0.0 0.00 0.02 0.02 99 1008.2
20260904093122 73 180 0.0 0.0 0.00 0.02 0.02 99 1008.2
20260904092126 73 11 0.0 0.9 0.00 0.02 0.02 99 1008.1
20260904091122 73 270 0.0 0.9 0.00 0.02 0.02 99 1008.2
20260904090122 73 238 0.0 1.7 0.00 0.02 0.02 99 1008.2
20260904085142 73 255 0.0 1.7 0.00 0.02 0.02 99 1008.2
20260904084121 74 307 0.9 2.6 0.00 0.02 0.02 99 1008.2
20260904083121 74 280 0.0 1.7 0.00 0.02 0.02 99 1008.4
20260904082145 74 322 0.9 1.7 0.00 0.02 0.02 99 1008.5